New York, NY

6:23 PM EST on November 13, 2019 (GMT -0500)
La Guardia

Weather History for KLGA - August, 2019

Change the Weather History Date:

Wednesday, August 28, 2019

  Actual Average Record
Temperature  
Mean Temperature 73 °F 75 °F  
Max Temperature 76 °F 82 °F 99 °F (1948)
Min Temperature 69 °F 67 °F 54 °F (1986)
Degree Days  
Heating Degree Days 0 0  
Month to date heating degree days 0 0  
Since 1 June heating degree days 4 16  
Since 1 July heating degree days 0 0  
Cooling Degree Days 8 10  
Month to date cooling degree days 365 323  
Year to date cooling degree days 1190 1005  
Since 1 June cooling degree days 1128 939  
Growing Degree Days 22 (Base 50)    
Moisture  
Dew Point 66 °F    
Average Humidity 81    
Maximum Humidity 84    
Minimum Humidity 78    
Precipitation  
Precipitation 0.10 in 0.11 in 3.62 in (2011)
Month to date precipitation 3.14 3.79  
Year to date precipitation 35.84 29.92  
Snow  
Snow 0.00 in 0.00 in - ()
Month to date snowfall 0.0 0.0  
Since 1 July snowfall 0.0 0.0  
Snow Depth 0.00 in    
Sea Level Pressure  
Sea Level Pressure 29.89 in    
Wind  
Wind Speed 7 mph (NE)    
Max Wind Speed 16 mph    
Max Gust Speed 23 mph    
Visibility 9 miles    
Events Rain    
T = Trace of Precipitation, MM = Missing Value Source: NWS Daily Summary

Daily Weather History Graph

Daily Weather History Graph

Search for Another Location

Airport or City:

Astronomy

Aug. 28, 2019 Rise Set
Actual Time 6:18 AM EDT 7:34 PM EDT
Civil Twilight 5:49 AM EDT 8:02 PM EDT
Nautical Twilight 5:15 AM EDT 8:36 PM EDT
Astronomical Twilight 4:39 AM EDT 9:12 PM EDT
Moon 3:46 AM EDT (8/28) 6:45 PM EDT (8/28)
Length of Visible Light 14h 13m
Length of Day
13h 16m
Waning Crescent, 5% of the Moon is Illuminated
Aug 28
Waning Crescent
Aug 30
New
Sep 5
First Quarter
Sep 14
Full
Sep 21
Last Quarter

Hourly Weather History & Observations

Time (EDT) Temp. Dew Point Humidity Pressure Visibility Wind Dir Wind Speed Gust Speed Precip Events Conditions
12:51 AM 69.1 °F 62.1 °F 78% 30.01 in 10.0 mi SE 5.8 mph - N/A   Mostly Cloudy
1:11 AM 69.1 °F 63.0 °F 81% 30.00 in 10.0 mi SE 8.1 mph - N/A   Mostly Cloudy
1:37 AM 69.1 °F 63.0 °F 81% 29.99 in 10.0 mi SE 4.6 mph - N/A   Overcast
1:51 AM 69.1 °F 63.0 °F 81% 29.99 in 10.0 mi ESE 4.6 mph - N/A   Overcast
2:51 AM 69.1 °F 63.0 °F 81% 29.96 in 10.0 mi East 5.8 mph - N/A   Mostly Cloudy
3:04 AM 69.1 °F 63.0 °F 81% 29.96 in 10.0 mi East 4.6 mph - N/A   Mostly Cloudy
3:51 AM 69.1 °F 64.0 °F 84% 29.96 in 10.0 mi NNE 4.6 mph - N/A   Mostly Cloudy
4:48 AM 69.8 °F 64.4 °F 83% 29.95 in 10.0 mi NNE 6.9 mph - N/A   Overcast
4:51 AM 70.0 °F 64.0 °F 81% 29.95 in 10.0 mi NNE 4.6 mph - N/A   Overcast
5:51 AM 69.1 °F 64.0 °F 84% 29.94 in 10.0 mi NNE 6.9 mph - N/A   Overcast
6:42 AM 69.1 °F 63.0 °F 81% 29.94 in 10.0 mi NE 8.1 mph - N/A   Mostly Cloudy
6:51 AM 69.1 °F 63.0 °F 81% 29.94 in 10.0 mi NE 6.9 mph - N/A   Mostly Cloudy
7:01 AM 69.1 °F 63.0 °F 81% 29.94 in 10.0 mi ENE 6.9 mph - N/A   Mostly Cloudy
7:28 AM 70.0 °F 64.0 °F 81% 29.93 in 10.0 mi ENE 8.1 mph - N/A   Mostly Cloudy
7:51 AM 70.0 °F 64.0 °F 81% 29.94 in 10.0 mi ENE 8.1 mph - N/A   Mostly Cloudy
8:51 AM 71.1 °F 64.9 °F 81% 29.93 in 10.0 mi NE 9.2 mph - N/A   Overcast
9:13 AM 71.1 °F 64.9 °F 81% 29.93 in 10.0 mi ENE 10.4 mph 19.6 mph N/A   Overcast
9:51 AM 71.1 °F 66.0 °F 84% 29.92 in 5.0 mi NE 12.7 mph - 0.00 in Rain Light Rain
10:26 AM 72.0 °F 66.9 °F 84% 29.92 in 5.0 mi NE 12.7 mph - 0.00 in Rain Light Rain
10:51 AM 72.0 °F 66.0 °F 81% 29.91 in 10.0 mi NE 12.7 mph 23.0 mph 0.00 in   Overcast
11:51 AM 72.0 °F 66.9 °F 84% 29.90 in 10.0 mi NE 11.5 mph - 0.00 in   Overcast
12:11 PM 72.0 °F 66.9 °F 84% 29.89 in 2.0 mi NE 10.4 mph - 0.00 in Rain Light Rain
12:35 PM 72.0 °F 68.0 °F 87% 29.88 in 2.0 mi NE 13.8 mph - 0.03 in Rain Light Rain
12:44 PM 71.1 °F 66.9 °F 87% 29.88 in 2.0 mi NE 13.8 mph - 0.04 in Rain Rain
12:51 PM 71.1 °F 66.9 °F 87% 29.87 in 3.0 mi NE 15.0 mph - 0.00 in Rain Light Rain
1:51 PM 71.1 °F 66.9 °F 87% 29.86 in 10.0 mi NE 12.7 mph - 0.00 in   Overcast
2:20 PM 72.0 °F 66.0 °F 81% 29.84 in 10.0 mi NE 12.7 mph - 0.00 in Rain Light Rain
2:51 PM 71.1 °F 64.9 °F 81% 29.83 in 10.0 mi NE 12.7 mph - 0.00 in   Overcast
3:02 PM 71.1 °F 66.0 °F 84% 29.83 in 10.0 mi NNE 9.2 mph - N/A   Overcast
3:24 PM 72.0 °F 66.0 °F 81% 29.83 in 10.0 mi NE 10.4 mph - 0.00 in Rain Light Rain
3:51 PM 71.1 °F 66.0 °F 84% 29.83 in 5.0 mi NE 10.4 mph - 0.01 in Rain Light Rain
5:51 PM 73.0 °F 68.0 °F 84% 29.81 in 8.0 mi NE 8.1 mph - 0.00 in Rain Light Rain
6:27 PM 73.9 °F 68.0 °F 82% 29.81 in 10.0 mi NE 6.9 mph - 0.00 in Rain Light Rain
6:51 PM 73.0 °F 68.0 °F 84% 29.80 in 10.0 mi NE 6.9 mph - 0.01 in   Mostly Cloudy
7:51 PM 73.0 °F 68.0 °F 84% 29.80 in 10.0 mi NE 3.5 mph - 0.00 in Rain Light Rain
8:45 PM 73.4 °F 69.8 °F 88% 29.81 in 10.0 mi NE 4.6 mph - 0.01 in Rain Light Rain
8:51 PM 75.0 °F 69.1 °F 82% 29.81 in 10.0 mi NE 3.5 mph - 0.01 in   Overcast
9:51 PM 73.9 °F 68.0 °F 82% 29.81 in 10.0 mi NNW 8.1 mph - 0.00 in Rain Light Rain
10:34 PM 75.9 °F 68.0 °F 76% 29.81 in 10.0 mi Variable 5.8 mph - 0.00 in   Mostly Cloudy
10:51 PM 73.9 °F 66.9 °F 79% 29.82 in 10.0 mi NNW 5.8 mph - 0.00 in   Mostly Cloudy
11:51 PM 73.9 °F 66.0 °F 76% 29.82 in 10.0 mi Calm Calm - N/A   Mostly Cloudy